Weather History for Andrews, NC

Change the Weather History Date:

Sunday, July 21, 2013

  Actual Average (KTYS) Record (KTYS)
Temperature  
Mean Temperature 75 °F 79 °F  
Max Temperature 84 °F 88 °F 98 °F (1926)
Min Temperature 66 °F 69 °F 59 °F (1903)
Degree Days  
Heating Degree Days 0 0  
Month to date heating degree days 0  
Since 1 June heating degree days 4  
Since 1 July heating degree days 0  
Cooling Degree Days 10 14  
Month to date cooling degree days 284  
Year to date cooling degree days 751  
Since 1 June cooling degree days 589  
Growing Degree Days 25 (Base 50)    
Moisture  
Dew Point 69 °F    
Average Humidity 87    
Maximum Humidity 99    
Minimum Humidity 61    
Precipitation  
Precipitation 0.00 in 0.17 in 1.44 in (1893)
Month to date precipitation 3.54  
Year to date precipitation 28.79  
Snow  
Snow 0.00 in 0.00 in - ()
Month to date snowfall 0.0  
Since 1 June snowfall 0.0  
Since 1 July snowfall 0.0  
Snow Depth -    
Sea Level Pressure  
Sea Level Pressure 30.05 in    
Wind  
Wind Speed 1 mph (North)    
Max Wind Speed 9 mph    
Max Gust Speed -    
Visibility 8 miles    
Events Rain    
T = Trace of Precipitation, MM = Missing Value Source: NWS Daily Summary

Daily Weather History Graph

Daily Weather History Graph

Search for Another Location

Airport:

Trip Planner

Search our weather history database for the weather conditions in past years. The results will help you decide how hot, cold, wet, or windy it might be!

Date:

Astronomy

Jul. 21, 2013 Rise Set
Actual Time 6:36 AM EDT 8:46 PM EDT
Civil Twilight 6:07 AM EDT 9:15 PM EDT
Nautical Twilight 5:32 AM EDT 9:50 PM EDT
Astronomical Twilight 4:54 AM EDT 10:28 PM EDT
Moon 7:45 PM EDT (7/21) 5:20 AM EDT (7/21)
Length of Visible Light 15h 07m
Length of Day
14h 10m
Waxing Gibbous, 98% of the Moon is Illuminated
Jul 21
Waxing Gibbous
Jul 22
Full
Jul 29
Last Quarter
Aug 6
New
Aug 14
First Quarter

Hourly Weather History & Observations

Time (EDT) Temp. Heat Index Dew Point Humidity Pressure Visibility Wind Dir Wind Speed Gust Speed Precip Events Conditions
12:15 AM 68.9 °F - 68.4 °F 98% 30.08 in 7.0 mi Calm Calm - N/A   Mostly Cloudy
12:35 AM 68.9 °F - 68.4 °F 98% 30.08 in 7.0 mi Calm Calm - N/A   Overcast
12:55 AM 68.7 °F - 68.0 °F 98% 30.08 in 10.0 mi NNE 3.5 mph - N/A   Mostly Cloudy
1:15 AM 68.9 °F - 68.0 °F 97% 30.07 in 10.0 mi NE 3.5 mph - N/A   Scattered Clouds
1:35 AM 68.0 °F - 67.3 °F 98% 30.07 in 10.0 mi Calm Calm - N/A   Clear
1:55 AM 67.3 °F - 67.1 °F 99% 30.07 in 5.0 mi Calm Calm - N/A   Scattered Clouds
2:15 AM 67.3 °F - 66.9 °F 99% 30.07 in 5.0 mi Calm Calm - N/A   Mostly Cloudy
2:35 AM 66.7 °F - 66.2 °F 98% 30.06 in 7.0 mi Calm Calm - N/A   Mostly Cloudy
2:55 AM 67.3 °F - 66.7 °F 98% 30.06 in 10.0 mi Calm Calm - N/A   Overcast
3:15 AM 67.3 °F - 66.4 °F 97% 30.06 in 10.0 mi Calm Calm - N/A   Overcast
3:35 AM 68.0 °F - 67.3 °F 98% 30.06 in 2.0 mi Calm Calm - N/A   Overcast
3:55 AM 68.0 °F - 67.5 °F 98% 30.06 in 4.0 mi Calm Calm - N/A   Overcast
4:15 AM 68.0 °F - 67.5 °F 98% 30.05 in 5.0 mi Calm Calm - N/A   Overcast
4:35 AM 67.8 °F - 67.3 °F 98% 30.05 in 7.0 mi Calm Calm - N/A   Overcast
4:55 AM 67.3 °F - 66.9 °F 99% 30.05 in 7.0 mi Calm Calm - N/A   Mostly Cloudy
5:15 AM 67.6 °F - 67.5 °F 99% 30.04 in 3.0 mi Calm Calm - N/A   Overcast
5:35 AM 67.5 °F - 67.1 °F 99% 30.04 in 5.0 mi Calm Calm - N/A   Overcast
5:55 AM 67.5 °F - 67.3 °F 99% 30.05 in 5.0 mi Calm Calm - N/A   Overcast
6:15 AM 67.5 °F - 67.3 °F 99% 30.06 in 2.5 mi Calm Calm - N/A   Overcast
6:35 AM 67.3 °F - 67.1 °F 99% 30.07 in 4.0 mi Calm Calm - N/A   Overcast
6:55 AM 67.3 °F - 67.1 °F 99% 30.07 in 2.5 mi Calm Calm - N/A   Overcast
7:15 AM 67.8 °F - 67.1 °F 98% 30.07 in 7.0 mi Calm Calm - N/A   Overcast
7:35 AM 67.8 °F - 67.3 °F 98% 30.08 in 4.0 mi Calm Calm - N/A   Overcast
7:55 AM 68.0 °F - 67.5 °F 98% 30.08 in - Calm Calm - N/A   Overcast
8:35 AM 69.1 °F - 68.0 °F 96% 30.09 in - Calm Calm - N/A   Unknown
8:55 AM 69.4 °F - 68.0 °F 95% 30.09 in 10.0 mi Calm Calm - N/A   Overcast
9:15 AM 70.9 °F - 68.5 °F 92% 30.10 in 10.0 mi Calm Calm - N/A   Overcast
9:35 AM 71.8 °F - 68.5 °F 89% 30.10 in 10.0 mi Calm Calm - N/A   Overcast
9:55 AM 72.3 °F - 68.9 °F 89% 30.09 in 10.0 mi Calm Calm - N/A   Overcast
10:15 AM 72.3 °F - 68.7 °F 88% 30.10 in 10.0 mi Calm Calm - N/A   Overcast
10:35 AM 74.5 °F - 69.6 °F 85% 30.09 in 10.0 mi Calm Calm - N/A   Mostly Cloudy
10:55 AM 76.6 °F - 70.5 °F 81% 30.09 in 10.0 mi WNW 3.5 mph - N/A   Clear
11:15 AM 77.7 °F - 69.6 °F 76% 30.09 in - Calm Calm - N/A   Scattered Clouds
11:35 AM 78.6 °F - 70.3 °F 76% 30.09 in 10.0 mi Calm Calm - N/A   Scattered Clouds
11:55 AM 79.0 °F - 70.0 °F 74% 30.08 in - Calm Calm - N/A   Scattered Clouds
12:15 PM 80.8 °F 84.4 °F 70.7 °F 71% 30.08 in 10.0 mi West 5.8 mph - N/A   Mostly Cloudy
12:35 PM 83.3 °F 87.9 °F 70.7 °F 66% 30.07 in 10.0 mi Calm Calm - N/A   Mostly Cloudy
12:55 PM 81.5 °F 84.9 °F 69.6 °F 67% 30.06 in - Calm Calm - N/A   Mostly Cloudy
1:15 PM 82.8 °F 86.4 °F 69.6 °F 64% 30.05 in 10.0 mi West 3.5 mph - N/A   Scattered Clouds
2:15 PM 84.2 °F 88.4 °F 70.0 °F 62% 30.03 in - SSW 4.6 mph - N/A   Scattered Clouds
2:35 PM 84.4 °F 89.0 °F 70.5 °F 63% 30.02 in - South 5.8 mph - N/A   Scattered Clouds
2:55 PM 84.9 °F 89.4 °F 70.3 °F 61% 30.01 in - SW 8.1 mph - N/A   Scattered Clouds
3:15 PM 82.9 °F 86.7 °F 69.6 °F 64% 30.00 in 10.0 mi WSW 8.1 mph - N/A   Scattered Clouds
3:35 PM 79.7 °F - 72.1 °F 78% 30.01 in 10.0 mi WSW 5.8 mph - N/A Rain Light Rain
3:55 PM 82.4 °F 86.5 °F 70.5 °F 67% 30.01 in 10.0 mi West 5.8 mph - N/A   Scattered Clouds
4:15 PM 81.9 °F 85.8 °F 70.2 °F 68% 30.01 in - North 9.2 mph - N/A   Scattered Clouds
4:35 PM 78.4 °F - 69.3 °F 73% 30.01 in 10.0 mi NNE 8.1 mph - N/A   Mostly Cloudy
4:55 PM 76.8 °F - 69.1 °F 77% 30.01 in - NE 5.8 mph - N/A   Overcast
5:15 PM 79.9 °F - 69.1 °F 69% 30.00 in - SSE 5.8 mph - N/A   Scattered Clouds
5:35 PM 77.7 °F - 68.2 °F 72% 30.01 in 10.0 mi East 6.9 mph - N/A   Scattered Clouds
5:55 PM 76.1 °F - 67.8 °F 75% 30.01 in 10.0 mi ENE 5.8 mph - N/A   Scattered Clouds
6:15 PM 75.2 °F - 68.7 °F 80% 30.01 in - ESE 3.5 mph - N/A   Scattered Clouds
6:35 PM 75.7 °F - 67.5 °F 75% 30.01 in 10.0 mi Calm Calm - N/A   Scattered Clouds
6:55 PM 75.4 °F - 68.4 °F 79% 30.01 in - ENE 3.5 mph - N/A   Mostly Cloudy
7:15 PM 75.7 °F - 66.6 °F 73% 30.01 in 10.0 mi Calm Calm - N/A   Scattered Clouds
7:35 PM 75.4 °F - 68.9 °F 80% 30.01 in 10.0 mi Calm Calm - N/A   Clear
7:55 PM 74.7 °F - 69.8 °F 85% 30.01 in - Calm Calm - N/A   Clear
8:15 PM 73.0 °F - 70.2 °F 91% 30.01 in - Calm Calm - N/A   Unknown
8:35 PM 72.5 °F - 68.7 °F 88% 30.01 in 10.0 mi Calm Calm - N/A   Clear
8:55 PM 71.6 °F - 70.3 °F 96% 30.03 in 10.0 mi Calm Calm - N/A   Clear
9:15 PM 70.9 °F - 69.6 °F 96% 30.04 in 10.0 mi Calm Calm - N/A   Clear
9:35 PM 71.1 °F - 69.4 °F 95% 30.06 in 10.0 mi Calm Calm - N/A   Clear
9:55 PM 70.7 °F - 69.8 °F 97% 30.06 in 10.0 mi Calm Calm - N/A   Clear
10:15 PM 70.9 °F - 68.9 °F 93% 30.06 in 10.0 mi Calm Calm - N/A   Scattered Clouds
10:35 PM 71.1 °F - 68.2 °F 91% 30.06 in 10.0 mi Calm Calm - N/A   Mostly Cloudy
10:55 PM 71.1 °F - 68.7 °F 92% 30.07 in 10.0 mi Calm Calm - N/A   Light Drizzle
11:15 PM 70.7 °F - 68.9 °F 94% 30.07 in 10.0 mi Calm Calm - N/A   Overcast
11:35 PM 70.2 °F - 68.2 °F 93% 30.07 in 10.0 mi NE 3.5 mph - N/A   Mostly Cloudy
11:55 PM 70.2 °F - 67.8 °F 92% 30.07 in 10.0 mi Calm Calm - N/A   Mostly Cloudy